Flag for U.S.A. Weather past 2 weeks in Greenville, South Carolina, U.S.A.

Now
92 °F

Sunny.


Feels Like: 95 °F
Forecast: 72 / 94 °F
Wind: 5 mph from North

Location: Greenville Downtown Airport

Current Time: Aug 22, 2014 at 3:43:17 PM

Latest Report: Aug 22, 2014 at 2:53 PM


Visibility: 10 mi

Pressure: 30.02 "Hg

Humidity: 43%

Dew point: 66 °F

Location of GreenvilleLocation

Historic Weather in Greenville — Graph

°F

Greenville temperature yesterday

Maximum temperature yesterday: 93 °F (at 2:53 PM)
Minimum temperature yesterday: 69 °F (at 6:53 AM)
Average temperature yesterday: 82 °F

Past Weeks' High & Low Weather Summary

 TemperatureHumidityPressure
High93 °F (Aug 21, 2:53 PM)94% (Aug 12, 7:53 AM)30.16 "Hg (Aug 12, 7:53 AM)
Low65 °F (Aug 14, 4:53 AM)38% (Aug 13, 3:53 PM)29.79 "Hg (Aug 12, 5:53 PM)
Average77 °F70%29.99 "Hg
* Reported Aug 7 1:53 PM — Aug 22 1:53 PM, Greenville, Weather by CustomWeather, © 2014

Note: Actual official high and low records may vary slightly from our data, if they occured in-between our weather recording intervals... More about our weather records

Advertising

Greenville weather history for previous 24 hours

 ConditionsComfort  
Time TempWeatherWind HumidityBarometerVisibility
1:53 PM
Aug 22
92 °FSunny.7 mph43%30.04 "Hg10 mi
12:53 PM91 °FSunny.5 mph44%30.05 "Hg10 mi
11:53 AM89 °FSunny.5 mph48%30.07 "Hg10 mi
10:53 AM87 °FSunny.No wind53%30.06 "Hg10 mi
9:53 AM86 °FSunny.5 mph53%30.06 "Hg10 mi
8:53 AM79 °FSunny.5 mph67%30.06 "Hg10 mi
7:53 AM75 °FClear.No wind85%30.05 "Hg10 mi
6:53 AM74 °FClear.No wind88%30.03 "Hg10 mi
5:53 AM74 °FClear.3 mph88%30.02 "Hg10 mi
4:53 AM74 °FClear.3 mph88%30.02 "Hg10 mi
3:53 AM77 °FClear.No wind82%30.02 "Hg10 mi
2:53 AM78 °FClear.No wind79%30.04 "Hg10 mi
1:53 AM76 °FClear.3 mph85%30.07 "Hg10 mi
12:53 AM78 °FClear.3 mph82%30.08 "Hg10 mi
11:53 PM
Aug 21
79 °FClear.3 mph82%30.07 "Hg10 mi
10:53 PM83 °FClear.No wind65%30.07 "Hg10 mi
9:53 PM83 °FClear.No wind68%30.08 "Hg10 mi
8:53 PM83 °FSunny.No wind70%30.07 "Hg10 mi
7:53 PM85 °FSunny.7 mph68%30.07 "Hg10 mi
6:53 PM88 °FSunny.5 mph59%30.06 "Hg10 mi
5:53 PM92 °FSunny.3 mph41%30.06 "Hg10 mi
4:53 PM92 °FSunny.6 mph40%30.06 "Hg10 mi
3:53 PM93 °FSunny.No wind38%30.08 "Hg10 mi
Weather by CustomWeather, © 2014

See weather overviewHow to use our weather pages